Flag for U.S.A. Weather past 2 weeks in Oxnard, California, U.S.A.

Now
58 °F

Sunny.


Feels Like: 58 °F
Forecast: 55 / 74 °F
Wind: 5 mph from Northwest

Location: Oxnard Airport

Current Time: Apr 28, 2015 at 8:26:46 AM

Latest Report: Apr 28, 2015 at 7:51 AM


Visibility: 9 mi

Pressure: 29.95 "Hg

Humidity: 78%

Dew point: 51 °F

Location of OxnardLocation

Historic Weather in Oxnard — Graph

°F

Oxnard temperature yesterday

Maximum temperature yesterday: 85 °F (at 10:51 AM)
Minimum temperature yesterday: 54 °F (at 3:51 AM)
Average temperature yesterday: 66 °F

Past Weeks' High & Low Weather Summary

 TemperatureHumidityPressure
High85 °F (Apr 27, 10:51 AM)93% (Apr 14, 6:51 AM)30.12 "Hg (Apr 14, 6:51 AM)
Low50 °F (Apr 15, 6:51 AM)7% (Apr 16, 11:51 AM)29.84 "Hg (Apr 20, 6:51 PM)
Average61 °F64%29.95 "Hg
* Reported Apr 13 6:51 AM — Apr 28 6:51 AM, Oxnard, Weather by CustomWeather, © 2015

Note: Actual official high and low records may vary slightly from our data, if they occured in-between our weather recording intervals... More about our weather records

Advertising

Oxnard weather history for previous 24 hours

 ConditionsComfort  
Time TempWeatherWind HumidityBarometerVisibility
6:51 AM
Tue, Apr 28
54 °FClear.6 mph72%29.95 "Hg10 mi
5:51 AM53 °FFog.3 mph89%29.94 "Hg6 mi
4:51 AM55 °FFog.No wind90%29.94 "Hg5 mi
3:51 AM55 °FFog.3 mph90%29.94 "Hg6 mi
2:51 AM55 °FClear.6 mph90%29.94 "Hg7 mi
1:51 AM57 °FClear.No wind78%29.95 "Hg8 mi
12:51 AM57 °FClear.3 mph74%29.96 "Hg9 mi
11:51 PM
Mon, Apr 27
57 °FClear.3 mph74%29.96 "Hg9 mi
10:51 PM60 °FClear.5 mph69%29.95 "Hg10 mi
9:51 PM61 °FClear.3 mph70%29.95 "Hg10 mi
8:51 PM62 °FClear.No wind65%29.93 "Hg10 mi
7:51 PM63 °FSunny.7 mph68%29.91 "Hg10 mi
6:51 PM64 °FSunny.10 mph65%29.90 "Hg9 mi
5:51 PM69 °FSunny.14 mph51%29.88 "Hg10 mi
4:51 PM72 °FSunny.16 mph40%29.89 "Hg10 mi
3:51 PM72 °FSunny.18 mph43%29.90 "Hg10 mi
2:51 PM74 °FSunny.N/A41%29.91 "Hg10 mi
1:51 PM73 °FSunny.16 mph43%29.93 "Hg10 mi
12:51 PM74 °FSunny.15 mph40%29.94 "Hg10 mi
11:51 AM77 °FSunny.14 mph33%29.96 "Hg10 mi
10:51 AM85 °FSunny.20 mph12%29.95 "Hg10 mi
9:51 AM81 °FSunny.22 mph14%29.94 "Hg10 mi
8:51 AM79 °FSunny.25 mph15%29.94 "Hg10 mi
Weather by CustomWeather, © 2015

See weather overviewHow to use our weather pages